RH
55 56 60 63 64 60 55 50 50 53 53 65 69 88 98 100 100 99 87 90 54 60 55 58 58 53 51 52 54 62 72 84 91 94 98 98 98 89 90 93 99 99 100
60 59 57 55 53 52 51 50 48 48 50 63 84 100 100 100 97 95 89 61 57 60 61 58 53 52 52 55 58 63 67 77 96 99 99 99 98 96 92 94 97 95 99
43 46 54 60 61 58 56 55 55 56 60 73 100 100 100 99 96 84 66 54 65 62 56 52 53 56 57 60 63 68 71 72 86 100 100 99 97 91 93 91 92 99 99
36 43 46 46 48 55 60 61 60 63 68 84 99 99 99 98 87 72 59 66 64 57 55 55 57 58 60 66 70 73 76 76 90 99 99 98 94 95 95 95 98 99 100
40 39 40 51 55 57 60 63 66 68 71 82 99 99 99 95 78 65 66 63 58 58 59 59 61 62 62 66 67 74 78 84 96 98 96 95 94 93 95 99 100 100 100
47 48 45 41 47 59 62 67 74 78 79 81 85 88 85 76 66 64 62 61 62 62 61 61 61 63 63 68 75 90 91 91 94 96 93 94 96 95 97 99 100 97 99
47 47 49 51 48 50 68 70 70 74 77 79 81 80 76 72 66 64 65 65 65 63 62 60 60 66 72 75 88 96 94 89 88 87 90 91 97 95 98 97 98 99 85
50 48 49 51 55 54 55 75 78 80 80 79 78 76 74 70 67 67 68 68 66 65 64 65 66 70 80 90 98 93 78 36 26 71 90 94 97 98 100 90 86 66 41
62 59 57 54 55 70 63 64 84 84 83 82 80 76 74 72 70 72 71 69 68 67 68 69 70 75 86 97 99 95 36 16 16 16 17 24 40 47 38 36 32 30 23
55 58 64 66 63 61 74 74 83 91 89 87 84 79 75 74 73 74 74 75 74 69 71 72 76 85 94 98 100 85 22 22 20 16 14 13 13 15 18 18 18 18 15
75 76 77 78 75 70 73 85 86 93 97 91 88 84 80 80 79 79 78 77 77 75 75 74 77 86 99 100 100 49 24 24 19 17 19 15 13 13 12 11 12 13 14
80 79 82 85 87 85 81 87 98 98 100 99 94 88 86 84 85 83 83 80 82 78 77 80 81 88 91 84 56 20 21 25 19 20 22 24 21 19 20 20 19 19 18
94 98 99 95 94 98 94 92 100 99 100 100 100 95 91 92 90 90 90 87 87 83 86 91 90 91 73 39 19 18 21 20 20 22 25 25 23 22 24 25 25 23 22
97 99 100 99 99 99 99 90 99 100 100 100 100 100 100 98 100 100 99 99 96 92 97 98 95 84 55 22 21 22 22 25 22 19 26 28 26 24 25 25 25 25 24
89 91 96 98 98 93 100 100 99 99 100 100 99 100 100 100 100 100 100 100 96 98 100 100 98 95 55 26 23 24 28 30 26 22 20 22 23 22 24 25 24 25 28
84 91 98 97 88 93 96 96 98 99 100 100 100 100 99 100 100 100 100 100 100 100 99 100 100 99 87 44 23 23 29 28 29 26 21 23 23 21 21 24 25 25 27
94 92 96 94 84 88 92 98 99 98 100 99 100 100 99 99 100 100 100 100 100 100 99 100 100 99 99 90 47 22 22 25 27 28 24 24 24 23 22 22 23 25 27
52 78 86 88 90 96 95 95 95 99 98 96 99 99 100 99 100 100 100 100 100 100 100 99 99 100 100 99 97 49 23 22 22 22 23 23 23 21 22 22 23 22 23
39 60 48 45 61 85 98 97 96 95 98 98 98 99 100 99 99 99 99 99 100 100 99 100 100 100 99 99 98 83 40 34 34 29 24 25 23 21 19 19 21 23 25
42 34 29 30 42 46 62 78 87 95 97 98 98 98 99 99 99 99 99 99 100 100 100 100 99 99 99 99 99 98 55 41 39 34 30 28 27 25 22 20 21 22 23
47 41 39 47 44 45 63 77 83 89 99 98 98 98 98 99 99 99 99 100 100 100 99 100 100 99 100 99 99 99 78 41 30 28 27 27 27 30 28 29 29 28 34
63 49 50 62 60 75 94 98 100 100 98 99 97 97 97 98 98 99 99 99 99 99 100 100 100 100 100 99 99 99 99 88 33 31 31 33 35 39 42 42 42 50 77
97 82 59 69 82 92 96 100 100 100 100 99 95 97 97 97 98 98 98 99 99 99 99 100 99 99 100 99 99 99 98 98 95 89 81 71 63 53 78 76 53 58 90
98 97 96 94 92 93 90 98 100 100 100 100 97 96 98 96 97 98 98 98 99 99 99 99 99 99 99 99 99 99 98 98 98 98 98 98 98 98 97 97 97 97 97
99 98 98 100 98 96 96 96 100 99 100 100 100 97 97 96 96 97 97 97 98 97 98 98 98 98 98 98 98 98 98 98 98 98 98 98 98 97 97 97 97 97 97
99 100 100 99 96 95 97 97 98 96 99 97 96 99 98 97 96 96 97 97 98 98 97 97 97 97 97 98 97 97 98 98 98 97 97 97 97 97 97 96 96 96 96
Wind_Speed
4 5 8 11 13 14 15 16 16 18 17 20 20 21 26 29 30 29 27 26 26 23 23 21 19 19 19 18 18 17 17 17 16 16 18 19 19 16 16 16 16 16 16
1 3 6 8 10 11 13 14 15 16 18 19 20 25 29 32 30 29 28 28 27 24 21 20 20 19 18 18 19 18 19 18 18 18 21 19 16 15 16 17 17 17 15
5 4 6 8 9 10 12 13 14 16 17 18 20 26 29 28 29 29 28 28 25 23 21 20 20 17 17 18 19 20 21 19 18 18 17 17 18 18 18 18 18 17 16
10 10 11 11 10 11 12 13 14 15 16 18 20 25 27 29 29 28 28 26 24 22 21 20 18 17 18 19 19 20 21 19 16 15 16 19 17 17 17 16 15 15 15
10 10 11 13 13 12 13 14 15 16 17 17 20 24 26 26 26 26 26 24 22 21 19 18 18 19 19 20 20 20 18 15 13 12 15 17 16 14 14 12 11 12 12
15 16 14 13 15 16 16 16 16 17 17 19 20 22 24 25 26 25 24 22 21 20 19 18 19 18 17 17 16 15 14 12 12 13 14 14 13 13 13 11 10 11 11
16 18 19 19 17 17 18 19 20 20 21 22 23 24 25 26 24 23 22 22 21 19 18 17 17 17 16 15 14 12 12 12 13 14 12 12 14 12 12 12 11 13 13
18 19 21 22 21 20 20 22 22 23 24 25 25 26 26 26 24 23 23 22 20 18 17 16 15 15 14 13 13 12 13 13 13 15 14 14 14 12 14 14 14 13 11
19 20 21 21 21 21 23 23 25 26 26 26 27 28 28 27 24 24 23 21 20 18 17 16 14 14 13 13 15 13 13 13 12 13 13 14 14 14 13 12 12 11 10
20 22 22 22 22 21 22 25 26 28 28 27 28 29 29 28 26 26 24 23 21 19 18 16 14 14 13 13 15 14 14 13 12 11 11 11 11 12 12 12 10 10 9
19 20 21 22 23 23 22 23 26 29 29 29 30 30 30 29 29 27 26 25 22 22 20 17 15 14 14 16 15 15 14 14 12 12 11 10 11 11 11 11 9 10 10
19 19 19 19 21 22 23 22 23 26 30 33 32 32 32 31 30 29 29 26 23 23 21 18 16 14 15 15 15 17 15 15 14 14 13 12 12 10 9 9 9 9 8
19 18 19 20 21 21 23 22 21 24 27 33 35 35 35 34 34 33 30 28 24 24 22 19 17 15 16 17 17 16 17 17 16 16 16 15 13 12 11 11 10 10 9
23 22 20 22 23 23 23 25 24 25 27 30 36 38 37 37 35 32 30 29 26 22 21 19 18 17 17 17 18 19 18 17 17 17 17 16 15 13 13 12 12 11 11
24 24 24 24 24 27 26 26 26 26 26 28 33 33 34 36 37 33 30 28 26 22 20 19 20 21 21 21 21 20 19 20 19 18 18 17 15 14 15 14 14 14 13
27 27 25 24 26 26 27 27 26 27 26 28 28 30 32 31 32 28 25 25 25 23 24 23 24 23 24 22 22 22 23 22 21 20 18 17 16 15 15 15 15 15 15
24 24 24 24 26 28 27 28 30 28 27 26 27 25 26 29 29 27 25 26 26 26 27 24 23 24 24 24 23 23 23 22 21 20 19 18 17 16 17 16 16 17 17
22 21 22 23 23 24 25 25 25 27 28 26 23 23 24 25 25 23 24 24 26 27 27 26 25 24 24 26 25 25 23 22 22 22 22 21 18 18 19 19 18 18 17
22 21 22 22 22 22 23 25 25 24 24 24 23 22 21 24 23 21 21 26 27 26 26 25 23 21 23 24 24 25 25 24 23 23 23 23 20 21 21 20 20 18 18
22 22 22 22 22 24 22 23 25 25 24 22 20 20 19 20 22 23 23 26 25 26 25 23 22 22 21 22 23 24 26 25 25 25 25 24 23 22 21 21 20 20 21
21 22 21 21 21 21 21 22 23 22 22 22 20 17 15 17 19 22 25 25 23 24 24 24 23 23 23 21 21 23 27 26 26 25 25 24 23 23 22 21 21 21 21
22 22 21 20 20 20 20 22 21 21 21 20 19 16 14 16 17 19 21 22 24 26 26 26 25 23 23 22 20 22 26 28 27 26 24 23 22 22 21 22 24 25 26
23 22 21 21 20 22 24 23 21 20 20 20 18 17 16 16 16 18 20 21 22 23 24 25 25 23 23 23 23 22 23 26 28 29 32 31 30 29 30 29 28 29 30
23 22 22 22 22 22 24 23 19 19 19 19 17 16 15 16 15 16 17 18 19 20 20 21 22 22 22 22 22 22 23 23 23 24 24 26 27 27 28 28 28 27 26
21 21 20 19 20 21 21 20 18 17 17 16 15 14 13 12 12 13 16 18 18 18 19 20 21 21 21 21 21 21 21 21 21 22 22 23 23 23 23 22 22 22 22
19 18 18 19 20 19 18 19 17 17 15 16 15 12 12 10 9 8 7 8 10 12 14 15 16 17 17 17 17 17 18 18 19 19 19 19 20 21 21 21 20 20 19
Wind_Direction
192 222 229 230 234 238 239 243 246 248 248 245 237 235 222 219 221 228 223 227 222 229 245 251 254 262 263 267 269 265 264 263 267 272 267 270 285 283 279 281 278 282 283
117 220 235 241 235 235 238 243 247 249 247 241 233 225 223 224 224 223 222 223 225 239 247 251 254 256 261 263 263 260 261 259 258 260 261 273 270 274 274 274 277 278 285
346 317 278 265 258 255 255 252 250 251 251 244 233 229 227 225 223 223 222 224 236 245 248 252 251 254 259 259 261 261 258 261 256 257 262 266 272 273 271 271 273 273 275
335 317 308 300 286 275 274 271 267 259 251 244 237 230 227 223 223 224 225 232 241 243 245 249 250 254 255 255 258 262 268 268 267 258 255 265 268 268 269 270 271 272 271
335 319 307 297 293 289 280 274 267 259 250 242 232 230 229 225 225 226 232 239 242 244 246 248 251 251 255 257 262 266 268 263 255 255 256 260 261 262 265 267 267 265 271
348 343 333 317 298 290 284 275 267 259 251 244 236 231 229 228 228 232 237 239 240 242 246 252 257 261 262 260 260 254 256 255 249 243 246 257 258 254 255 260 258 266 269
341 342 340 331 317 293 278 271 266 261 256 251 244 240 236 235 235 236 237 238 241 245 250 255 262 261 260 260 261 249 240 238 244 247 242 243 244 245 250 248 251 254 252
326 330 332 330 325 307 283 269 261 255 253 250 247 244 241 239 235 233 234 237 242 246 252 256 256 258 259 258 260 241 238 238 240 242 235 230 235 232 238 245 244 246 253
318 314 312 314 316 307 290 276 263 259 256 253 250 247 244 242 239 238 239 240 241 243 247 251 253 256 253 244 247 237 238 240 238 237 239 241 242 242 245 243 240 237 239
294 299 301 302 300 300 297 284 271 261 258 255 251 249 247 244 240 239 239 241 240 242 244 246 250 251 245 236 240 232 235 238 239 238 233 228 226 224 225 229 228 233 231
302 300 297 294 293 293 293 286 275 267 260 255 251 246 244 239 240 237 238 240 242 243 245 247 249 250 242 237 228 233 230 235 232 230 226 217 218 215 214 220 220 223 223
309 306 304 303 302 301 296 294 281 271 261 258 253 247 244 242 240 239 238 240 238 241 246 248 247 242 231 231 228 232 232 234 230 225 222 220 218 212 213 215 214 215 218
314 315 310 306 307 308 309 307 298 283 266 260 254 250 246 243 239 240 239 241 239 235 237 238 241 236 228 226 230 231 233 230 229 225 223 224 224 217 215 218 217 216 215
308 305 306 310 309 305 305 301 302 290 279 271 265 256 247 244 242 239 237 236 238 230 228 233 237 237 236 238 229 234 233 233 231 228 225 225 223 221 225 225 224 224 224
303 300 302 301 298 300 298 300 299 294 286 279 271 269 263 257 253 247 237 239 231 228 228 228 234 236 232 229 231 233 232 231 230 226 225 227 224 226 229 229 230 229 231
303 299 295 296 298 298 294 295 291 288 287 283 275 268 265 259 261 253 244 229 226 228 230 228 233 237 236 234 234 234 235 234 229 228 225 226 228 230 233 233 234 235 236
304 304 303 300 298 298 297 296 297 292 291 285 274 266 259 253 249 241 238 232 223 223 230 235 238 243 240 236 235 239 238 238 236 232 228 226 228 228 234 237 239 240 240
310 307 305 303 302 303 303 300 297 299 299 296 284 271 257 249 245 244 238 226 218 220 229 235 239 244 244 243 239 235 238 237 232 230 230 232 230 234 238 241 243 245 247
305 306 309 311 312 309 307 306 306 306 301 300 290 278 270 249 241 240 230 227 223 223 230 238 243 247 248 249 247 233 237 238 236 235 235 234 233 236 241 244 246 246 249
306 309 310 310 309 311 312 311 309 305 302 302 298 289 278 264 245 233 229 230 232 235 238 244 250 251 251 249 246 235 234 235 236 235 236 237 237 237 243 245 245 247 252
306 311 316 314 316 318 317 317 313 309 304 300 299 293 284 269 253 243 238 237 242 248 249 250 250 251 252 252 249 240 232 237 237 236 238 238 240 240 242 244 246 248 252
303 306 307 310 314 319 320 320 311 310 307 302 301 298 288 271 260 250 247 246 249 252 251 251 252 252 253 251 250 244 239 236 237 236 236 237 243 242 244 249 252 251 257
297 297 298 298 303 307 310 309 310 311 307 305 302 296 295 285 271 261 254 251 249 249 249 250 250 249 248 246 244 243 242 239 235 237 237 236 238 242 244 248 251 251 256
297 296 294 292 295 302 304 305 299 303 306 305 304 304 299 291 279 265 258 254 250 247 246 245 245 246 246 244 243 241 241 241 238 237 236 240 244 246 247 249 250 253 253
294 295 296 296 298 302 303 301 298 298 301 305 304 302 301 306 292 276 265 257 255 252 249 246 245 245 244 242 240 239 239 238 237 236 236 238 240 241 242 243 245 246 246
295 295 297 296 301 304 301 299 297 294 292 300 304 300 295 296 296 296 284 268 260 252 246 242 242 241 240 238 236 235 234 234 234 235 235 234 233 235 237 240 242 243 243